Hourly Weather Valencia

Today, 21 January, Thursday

Time Temperature Precipitation Wind Pressure Humidity
00:00 +21°C° 0 mm 2 mps 717 mmHg 94%
01:00 +21°C° 0 mm 2 mps 717 mmHg 93%
02:00 +22°C° 0 mm 1 mps 717 mmHg 94%
03:00 +22°C° 0 mm 1 mps 717 mmHg 94%
04:00 +21°C° 0 mm 1 mps 717 mmHg 95%
05:00 +22°C° 0 mm 1 mps 717 mmHg 93%
06:00 +22°C° 0 mm 1 mps 718 mmHg 91%
07:00 +22°C° 0 mm 1 mps 718 mmHg 89%
08:00 +25°C° 0 mm 1 mps 718 mmHg 77%
09:00 +27°C° 0 mm 1 mps 719 mmHg 65%
10:00 +30°C° 0 mm 1 mps 719 mmHg 53%
11:00 +31°C° 0 mm 1 mps 718 mmHg 50%
12:00 +31°C° 0 mm 1 mps 718 mmHg 46%
13:00 +32°C° 0 mm 1 mps 717 mmHg 42%
14:00 +31°C° 0 mm 2 mps 716 mmHg 47%
15:00 +30°C° 0 mm 2 mps 716 mmHg 51%
16:00 +29°C° 0 mm 2 mps 715 mmHg 56%
17:00 +27°C° 0 mm 2 mps 715 mmHg 67%
18:00 +25°C° 0 mm 2 mps 715 mmHg 78%
19:00 +23°C° 0 mm 2 mps 716 mmHg 90%
20:00 +23°C° 0 mm 2 mps 716 mmHg 91%
21:00 +21°C° 0 mm 2 mps 717 mmHg 93%
22:00 +21°C° 0 mm 2 mps 717 mmHg 94%
23:00 +21°C° 0 mm 2 mps 717 mmHg 94%

Tomorrow, 22 January, Friday

Time Temperature Precipitation Wind Pressure Humidity
00:00 +22°C° 0 mm 1 mps 717 mmHg 94%
01:00 +22°C° 0 mm 1 mps 717 mmHg 93%
02:00 +22°C° 0 mm 1 mps 717 mmHg 94%
03:00 +22°C° 0 mm 1 mps 717 mmHg 94%
04:00 +22°C° 0 mm 1 mps 717 mmHg 95%
05:00 +22°C° 0 mm 1 mps 717 mmHg 93%
06:00 +22°C° 0 mm 1 mps 717 mmHg 92%
07:00 +23°C° 0 mm 1 mps 718 mmHg 90%
08:00 +25°C° 0 mm 1 mps 718 mmHg 77%
09:00 +28°C° 0 mm 1 mps 719 mmHg 64%
10:00 +31°C° 0 mm 1 mps 719 mmHg 51%
11:00 +31°C° 0 mm 1 mps 719 mmHg 47%
12:00 +32°C° 0 mm 1 mps 718 mmHg 43%
13:00 +33°C° 0 mm 1 mps 717 mmHg 39%
14:00 +32°C° 0 mm 1 mps 717 mmHg 43%
15:00 +31°C° 0 mm 2 mps 716 mmHg 47%
16:00 +30°C° 0 mm 2 mps 716 mmHg 52%
17:00 +28°C° 0 mm 2 mps 716 mmHg 63%
18:00 +26°C° 0 mm 2 mps 716 mmHg 75%
19:00 +23°C° 0 mm 2 mps 716 mmHg 87%
20:00 +23°C° 0 mm 2 mps 717 mmHg 89%
21:00 +23°C° 0 mm 2 mps 717 mmHg 91%
22:00 +21°C° 0 mm 2 mps 717 mmHg 92%
23:00 +22°C° 0 mm 1 mps 717 mmHg 93%

Day after tomorrow, 23 January, Saturday

Time Temperature Precipitation Wind Pressure Humidity
00:00 +22°C° 0 mm 1 mps 717 mmHg 94%
01:00 +22°C° 0 mm 1 mps 717 mmHg 94%
02:00 +22°C° 0 mm 1 mps 717 mmHg 94%
03:00 +22°C° 0 mm 1 mps 717 mmHg 95%
04:00 +22°C° 0 mm 1 mps 717 mmHg 95%
05:00 +22°C° 0 mm 1 mps 717 mmHg 93%
06:00 +23°C° 0 mm 1 mps 718 mmHg 91%
07:00 +21°C° 0 mm 0 mps 719 mmHg 88%
08:00 +26°C° 0 mm 1 mps 719 mmHg 77%
09:00 +28°C° 0 mm 1 mps 719 mmHg 65%
10:00 +31°C° 0 mm 1 mps 720 mmHg 53%
11:00 +31°C° 0 mm 1 mps 719 mmHg 51%
12:00 +32°C° 0 mm 1 mps 718 mmHg 49%
13:00 +33°C° 0 mm 1 mps 718 mmHg 47%
14:00 +31°C° 0 mm 1 mps 717 mmHg 53%
15:00 +30°C° 0 mm 2 mps 716 mmHg 59%
16:00 +29°C° 0 mm 2 mps 716 mmHg 65%
17:00 +27°C° 0 mm 2 mps 716 mmHg 74%
18:00 +25°C° 0 mm 2 mps 716 mmHg 82%
19:00 +24°C° 0 mm 2 mps 716 mmHg 90%
20:00 +24°C° 0 mm 2 mps 717 mmHg 91%
21:00 +23°C° 0 mm 1 mps 717 mmHg 91%
22:00 +23°C° 0 mm 1 mps 718 mmHg 92%
23:00 +23°C° 0.1 mm 1 mps 717 mmHg 93%

24 January, Sunday

Time Temperature Precipitation Wind Pressure Humidity
00:00 +23°C° 0.1 mm 1 mps 717 mmHg 94%
01:00 +23°C° 0.1 mm 1 mps 717 mmHg 95%
02:00 +23°C° 0 mm 1 mps 717 mmHg 94%
03:00 +23°C° 0 mm 1 mps 717 mmHg 94%
04:00 +23°C° 0 mm 1 mps 717 mmHg 94%
05:00 +23°C° 0 mm 1 mps 717 mmHg 93%
06:00 +24°C° 0 mm 1 mps 718 mmHg 91%
07:00 +24°C° 0 mm 1 mps 718 mmHg 90%
08:00 +26°C° 0 mm 1 mps 718 mmHg 81%
09:00 +28°C° 0 mm 1 mps 719 mmHg 71%
10:00 +30°C° 0 mm 1 mps 719 mmHg 62%
11:00 +30°C° 0.2 mm 2 mps 718 mmHg 60%
12:00 +30°C° 0.2 mm 2 mps 718 mmHg 58%
13:00 +31°C° 0.2 mm 2 mps 717 mmHg 57%
14:00 +30°C° 0.1 mm 2 mps 716 mmHg 62%
15:00 +29°C° 0.1 mm 3 mps 716 mmHg 67%
16:00 +27°C° 0.1 mm 3 mps 715 mmHg 73%
17:00 +26°C° 0 mm 3 mps 715 mmHg 79%
18:00 +25°C° 0 mm 2 mps 716 mmHg 85%
19:00 +23°C° 0 mm 2 mps 716 mmHg 91%
20:00 +23°C° 0 mm 2 mps 716 mmHg 92%
21:00 +23°C° 0 mm 2 mps 717 mmHg 92%
22:00 +21°C° 0 mm 2 mps 717 mmHg 93%
23:00 +21°C° 0 mm 2 mps 717 mmHg 93%

25 January, Monday

Time Temperature Precipitation Wind Pressure Humidity
00:00 +21°C° 0 mm 2 mps 717 mmHg 94%
01:00 +21°C° 0 mm 2 mps 717 mmHg 94%
02:00 +21°C° 0 mm 2 mps 716 mmHg 94%
03:00 +21°C° 0 mm 2 mps 716 mmHg 93%
04:00 +20°C° 0 mm 2 mps 716 mmHg 93%
05:00 +22°C° 0 mm 1 mps 717 mmHg 91%
06:00 +22°C° 0 mm 1 mps 717 mmHg 89%
07:00 +22°C° 0 mm 1 mps 718 mmHg 87%
08:00 +25°C° 0 mm 1 mps 718 mmHg 76%
09:00 +27°C° 0 mm 1 mps 719 mmHg 65%
10:00 +30°C° 0 mm 1 mps 719 mmHg 54%
11:00 +30°C° 0 mm 1 mps 718 mmHg 53%
12:00 +30°C° 0 mm 1 mps 718 mmHg 51%
13:00 +31°C° 0 mm 2 mps 717 mmHg 49%
14:00 +30°C° 0 mm 2 mps 716 mmHg 53%
15:00 +29°C° 0 mm 2 mps 716 mmHg 57%
16:00 +28°C° 0 mm 3 mps 715 mmHg 61%
17:00 +26°C° 0 mm 2 mps 715 mmHg 70%
18:00 +24°C° 0 mm 2 mps 716 mmHg 80%
19:00 +21°C° 0 mm 2 mps 716 mmHg 89%
20:00 +21°C° 0 mm 2 mps 716 mmHg 90%
21:00 +21°C° 0 mm 2 mps 716 mmHg 92%
22:00 +21°C° 0 mm 2 mps 717 mmHg 93%
23:00 +21°C° 0 mm 2 mps 717 mmHg 93%

26 January, Tuesday

Time Temperature Precipitation Wind Pressure Humidity
00:00 +22°C° 0 mm 1 mps 717 mmHg 93%
01:00 +22°C° 0 mm 1 mps 717 mmHg 93%
02:00 +22°C° 0 mm 1 mps 717 mmHg 93%
03:00 +22°C° 0 mm 1 mps 717 mmHg 94%
04:00 +21°C° 0 mm 1 mps 717 mmHg 94%
05:00 +22°C° 0 mm 1 mps 717 mmHg 92%
06:00 +22°C° 0 mm 1 mps 718 mmHg 90%
07:00 +21°C° 0 mm 0 mps 718 mmHg 87%
08:00 +25°C° 0 mm 1 mps 719 mmHg 76%
09:00 +28°C° 0 mm 1 mps 719 mmHg 64%
10:00 +30°C° 0 mm 1 mps 720 mmHg 53%
11:00 +31°C° 0.1 mm 1 mps 719 mmHg 52%
12:00 +31°C° 0.1 mm 1 mps 718 mmHg 52%
13:00 +31°C° 0.1 mm 1 mps 718 mmHg 51%
14:00 +30°C° 0.1 mm 2 mps 717 mmHg 56%
15:00 +29°C° 0.1 mm 2 mps 716 mmHg 61%
16:00 +28°C° 0.1 mm 2 mps 716 mmHg 66%
17:00 +27°C° 0 mm 2 mps 716 mmHg 74%
18:00 +25°C° 0 mm 2 mps 716 mmHg 83%
19:00 +23°C° 0 mm 2 mps 716 mmHg 91%
20:00 +23°C° 0 mm 2 mps 717 mmHg 92%
21:00 +23°C° 0 mm 2 mps 717 mmHg 93%
22:00 +23°C° 0 mm 1 mps 717 mmHg 94%
23:00 +23°C° 0 mm 1 mps 717 mmHg 94%
Show more

We Need Your Consent

Meteoprog and our Service Providers may store and access personal data such as cookies, device identifiers or other similar technologies on your device and process such data to personalise content and ads, as well as provide social media features and to analyse the traffic.

  • Store and/or access information on your device

    Cookies, device identifiers or other information can be stored or accessed on your device for the purposes indicated above.

  • Personalised ads and content, ad and content measurement, audience insights, and products development

    Ads and content can be personalised based on a profile. More data can be added to better personalise ads and content. Ad and content performance can be measured. Insights about the audience who saw the ads and content can be derived. Such data can be used to develop or improve user’s experience, systems and software.

By clicking ‘I Agree’ you will allow the use of indicated cookies, device identifiers, web beacons or other similar technologies. Your settings can be changed in the browser on your device.

For certain purposes, legitimate interests may be relied on, rather than consent. You can read more about this in our Privacy and Cookie Policy.